time_stamp(utc),avg(mph),gust(mph),direction(deg),12m_air_temp(f),sonic_u(cm/s),sonic_v(cm/s),sonic_w(cm/s),pressure,2m_air_temp(f),pyranometer(W/m^2)
"2016-12-11 00:00:21+00",9.9,10.9,,33.6,-260,354,21,1031.09,33,0
"2016-12-11 00:05:21+00",9.4,11.4,,33.7,-280,300,34,1031.12,32.9,0
"2016-12-11 00:10:21+00",9.1,11.1,,33.7,-269,298,29,1031.05,32.9,0
"2016-12-11 00:15:21+00",8.7,10.7,,33.4,-258,279,35,1031.1,32.6,0
"2016-12-11 00:20:21+00",10.0,11.0,,33.3,-317,314,35,1031.22,32.3,0
"2016-12-11 00:25:21+00",9.4,10.4,,33.4,-300,286,35,1031.26,32.3,0
"2016-12-11 00:30:21+00",8.0,9.0,,33.2,-235,252,28,1031.26,32.2,0
"2016-12-11 00:35:21+00",8.8,10.8,,33.2,-280,273,46,1031.36,32.3,0
"2016-12-11 00:40:21+00",8.7,9.7,,33.1,-278,268,35,1031.38,32.2,0
"2016-12-11 00:45:21+00",8.6,9.6,,33,-262,267,30,1031.35,32.2,0
"2016-12-11 00:50:21+00",9.1,11.1,,33,-312,276,33,1031.59,32.1,0
"2016-12-11 00:55:21+00",9.6,11.6,,33,-346,261,39,1031.61,32,0
"2016-12-11 01:00:21+00",9.4,10.4,,32.9,-330,248,25,1031.6,32,0
"2016-12-11 01:05:21+00",11.8,12.8,,32.9,-413,321,33,1031.63,31.9,0
"2016-12-11 01:10:21+00",12.1,13.1,,33,-429,331,44,1031.72,32,0
"2016-12-11 01:15:21+00",12.0,14.0,,32.9,-425,319,37,1031.9,32.1,0
"2016-12-11 01:20:21+00",13.7,16.7,,32.9,-464,384,26,1031.84,32.1,0
"2016-12-11 01:25:21+00",12.6,15.6,,32.7,-426,370,50,1031.88,32,0
"2016-12-11 01:30:21+00",12.9,14.9,,32.6,-450,354,18,1031.81,31.9,0
"2016-12-11 01:35:21+00",9.6,11.6,,32.4,-362,249,44,1031.86,31.8,0
"2016-12-11 01:40:21+00",12.8,14.8,,32.2,-491,297,32,1031.83,31.5,0
"2016-12-11 01:45:21+00",11.0,12.0,,32,-417,271,15,1031.87,31.3,0
"2016-12-11 01:50:21+00",12.2,13.2,,32,-433,329,28,1031.88,31.2,0
"2016-12-11 01:55:21+00",9.8,10.8,,31.8,-341,261,39,1031.92,31.1,0
"2016-12-11 02:00:21+00",11.8,12.8,,31.6,-427,303,28,1031.92,30.8,0
"2016-12-11 02:05:21+00",11.4,12.4,,31.4,-377,331,39,1031.94,30.6,0
"2016-12-11 02:10:21+00",8.3,10.3,,31.2,-289,226,36,1031.98,30.5,0
"2016-12-11 02:15:21+00",11.4,12.4,,31.1,-407,308,32,1031.97,30.4,0
"2016-12-11 02:20:21+00",11.2,13.2,,31.1,-410,289,26,1032,30.3,0
"2016-12-11 02:25:21+00",11.8,13.8,,31,-426,305,30,1031.94,30.3,0
"2016-12-11 02:30:21+00",10.1,12.1,,30.9,-393,245,32,1032.01,30.2,0
"2016-12-11 02:35:21+00",12.4,14.4,,31,-470,297,36,1031.99,30.1,0
"2016-12-11 02:40:21+00",12.3,14.3,,31.1,-464,296,34,1032,30.1,0
"2016-12-11 02:45:21+00",11.0,14.0,,31,-424,270,44,1031.95,30.2,0
"2016-12-11 02:50:21+00",14.0,15.0,,30.9,-523,355,35,1032.06,30.1,0
"2016-12-11 02:55:21+00",13.7,15.7,,30.8,-496,350,34,1032.11,29.9,0
"2016-12-11 03:00:21+00",10.9,14.9,,30.6,-372,285,57,1032.24,29.9,0
"2016-12-11 03:05:21+00",12.8,14.8,,30.8,-487,318,33,1032.32,29.9,0
"2016-12-11 03:10:21+00",13.0,16.0,,30.7,-485,330,35,1032.37,29.9,0
"2016-12-11 03:15:21+00",13.1,14.1,,30.6,-470,360,34,1032.24,29.8,0
"2016-12-11 03:20:21+00",11.2,12.2,,30.4,-419,279,34,1032.31,29.7,0
"2016-12-11 03:25:21+00",11.0,12.0,,30.2,-410,296,10,1032.43,29.4,0
"2016-12-11 03:30:21+00",9.6,11.6,,30.2,-354,255,35,1032.4,29.3,0
"2016-12-11 03:35:21+00",12.8,14.8,,30.2,-448,344,32,1032.57,29.3,0
"2016-12-11 03:40:21+00",12.2,14.2,,30,-413,354,39,1032.58,29.3,0
"2016-12-11 03:45:21+00",11.6,12.6,,29.7,-378,340,35,1032.57,29.1,0
"2016-12-11 03:50:21+00",10.9,11.9,,29.6,-363,331,37,1032.68,28.9,0
"2016-12-11 03:55:21+00",10.9,11.9,,29.4,-393,298,37,1032.7,28.7,0
"2016-12-11 04:00:21+00",12.3,14.3,,29.2,-415,355,33,1032.75,28.5,0
"2016-12-11 04:05:21+00",11.6,12.6,,29.1,-396,326,35,1032.67,28.4,0
"2016-12-11 04:10:21+00",12.0,13.0,,29.2,-386,369,45,1032.65,28.4,0
"2016-12-11 04:15:21+00",12.2,14.2,,29.2,-430,329,41,1032.59,28.4,0
"2016-12-11 04:20:21+00",12.8,14.8,,29.1,-452,348,42,1032.64,28.4,0
"2016-12-11 04:25:21+00",12.6,14.6,,29.1,-464,312,34,1032.56,28.3,0
"2016-12-11 04:30:21+00",11.2,13.2,,28.9,-422,281,41,1032.67,28.2,0
"2016-12-11 04:35:21+00",12.5,14.5,,28.8,-474,309,36,1032.64,28,0
"2016-12-11 04:40:21+00",11.9,13.9,,28.9,-434,300,41,1032.63,28,0
"2016-12-11 04:45:21+00",12.8,14.8,,28.8,-487,315,33,1032.65,28,0
"2016-12-11 04:50:21+00",11.6,13.6,,28.6,-419,288,42,1032.66,27.9,0
"2016-12-11 04:55:21+00",11.7,13.7,,28.7,-439,284,32,1032.61,27.8,0
"2016-12-11 05:00:21+00",12.8,13.8,,28.9,-490,293,33,1032.83,27.9,0
"2016-12-11 05:05:21+00",13.5,14.5,,29.1,-518,317,37,1032.72,28,0
"2016-12-11 05:10:21+00",13.3,15.3,,29.4,-484,345,46,1032.62,28.3,0
"2016-12-11 05:15:21+00",12.0,13.0,,29.4,-452,300,36,1032.49,28.4,0
"2016-12-11 05:20:21+00",11.5,13.5,,29.4,-405,310,25,1032.42,28.5,0
"2016-12-11 05:25:21+00",10.5,11.5,,29.2,-367,284,41,1032.52,28.4,0
"2016-12-11 05:30:21+00",10.1,13.1,,29,-349,270,29,1032.45,28.3,0
"2016-12-11 05:35:21+00",12.3,13.3,,29.2,-418,346,39,1032.44,28.3,0
"2016-12-11 05:40:21+00",12.0,13.0,,29,-404,342,33,1032.48,28.3,0
"2016-12-11 05:45:21+00",11.0,13.0,,28.8,-387,303,45,1032.33,28.2,0
"2016-12-11 05:50:21+00",12.2,13.2,,28.6,-449,331,36,1032.45,27.9,0
"2016-12-11 05:55:21+00",12.3,15.3,,28.5,-468,302,41,1032.48,27.8,0
"2016-12-11 06:00:21+00",12.7,13.7,,28.5,-471,321,30,1032.44,27.7,0
"2016-12-11 06:05:21+00",13.8,14.8,,28.6,-529,326,33,1032.49,27.7,0
"2016-12-11 06:10:21+00",13.2,15.2,,28.6,-501,312,29,1032.71,27.8,0
"2016-12-11 06:15:21+00",13.1,14.1,,28.6,-502,311,39,1032.67,27.8,0
"2016-12-11 06:20:21+00",12.7,14.7,,28.6,-485,293,35,1032.67,27.9,0
"2016-12-11 06:25:21+00",12.9,14.9,,28.7,-501,287,34,1032.72,28,0
"2016-12-11 06:30:21+00",13.1,15.1,,28.8,-501,295,21,1032.75,28,0
"2016-12-11 06:35:21+00",13.1,15.1,,28.8,-499,304,38,1032.87,28.1,0
"2016-12-11 06:40:21+00",10.9,13.9,,28.9,-430,231,25,1032.86,28.2,0
"2016-12-11 06:45:21+00",11.9,13.9,,28.9,-462,259,26,1032.91,28.3,0
"2016-12-11 06:50:21+00",9.5,11.5,,28.9,-365,205,41,1033.01,28.4,0
"2016-12-11 06:55:21+00",11.3,13.3,,29,-436,262,36,1032.94,28.5,0
"2016-12-11 07:00:21+00",12.2,13.2,,29.1,-465,275,29,1032.9,28.6,0
"2016-12-11 07:05:21+00",10.4,12.4,,29.2,-406,241,32,1033.06,28.7,0
"2016-12-11 07:10:21+00",9.9,10.9,,29.3,-387,210,40,1033.03,28.8,0
"2016-12-11 07:15:21+00",11.4,12.4,,29.3,-430,258,27,1033.16,28.9,0
"2016-12-11 07:20:21+00",9.5,10.5,,29.3,-361,215,26,1033.18,28.9,0
"2016-12-11 07:25:21+00",8.3,9.3,,29.1,-341,141,33,1033.15,28.9,0
"2016-12-11 07:30:21+00",10.6,11.6,,29,-428,184,24,1033.33,28.8,0
"2016-12-11 07:35:21+00",8.7,10.7,,28.8,-322,202,34,1033.39,28.6,0
"2016-12-11 07:40:21+00",9.4,10.4,,28.6,-370,186,23,1033.26,28.5,0
"2016-12-11 07:45:21+00",9.1,10.1,,28.7,-356,184,18,1033.3,28.4,0
"2016-12-11 07:50:21+00",7.7,8.7,,28.7,-301,148,32,1033.22,28.4,0
"2016-12-11 07:55:21+00",8.0,10.0,,28.8,-265,221,72,1033.16,28.4,0
"2016-12-11 08:00:21+00",10.5,12.5,,28.7,-370,283,53,1033.12,28.5,0
"2016-12-11 08:05:21+00",10.8,12.8,,28.5,-394,282,39,1033.19,28.4,0
"2016-12-11 08:10:21+00",11.6,12.6,,28.3,-398,326,20,1033.04,28.3,0
"2016-12-11 08:15:21+00",11.0,12.0,,28.2,-383,302,26,1032.97,28.2,0
"2016-12-11 08:20:21+00",9.8,10.8,,28.2,-343,258,43,1033.07,28.2,0
"2016-12-11 08:25:21+00",11.1,12.1,,28.3,-393,304,33,1033.09,28.2,0
"2016-12-11 08:30:21+00",10.8,11.8,,28.3,-375,300,28,1033.13,28.2,0
"2016-12-11 08:35:21+00",10.0,13.0,,28.4,-352,274,44,1032.93,28.3,0
"2016-12-11 08:40:21+00",11.1,12.1,,28.5,-416,272,31,1033.09,28.4,0
"2016-12-11 08:45:21+00",10.9,11.9,,28.6,-389,287,35,1033.05,28.5,0
"2016-12-11 08:50:21+00",9.2,11.2,,28.8,-347,241,47,1033.17,28.6,0
"2016-12-11 08:55:21+00",9.9,11.9,,29,-387,212,21,1033.2,28.8,0
"2016-12-11 09:00:21+00",9.0,11.0,,29.2,-346,192,24,1033.27,28.9,0
"2016-12-11 09:05:21+00",10.4,12.4,,29.3,-372,256,23,1033.22,29.1,0
"2016-12-11 09:10:21+00",9.9,11.9,,29.3,-371,223,44,1033.34,29.2,0
"2016-12-11 09:15:21+00",9.4,10.4,,29.4,-356,215,34,1033.42,29.3,0
"2016-12-11 09:20:21+00",9.7,10.7,,29.3,-362,235,14,1033.23,29.2,0
"2016-12-11 09:25:21+00",9.5,11.5,,29.2,-351,246,38,1033.16,29.2,0
"2016-12-11 09:30:21+00",10.3,11.3,,29.2,-346,298,25,1033.21,29.2,0
"2016-12-11 09:35:21+00",9.3,11.3,,29.2,-310,274,48,1033.21,29.2,0
"2016-12-11 09:40:21+00",11.1,12.1,,29.1,-344,340,25,1033.35,29.1,0
"2016-12-11 09:45:21+00",10.6,11.6,,29,-313,345,37,1033.44,29,0
"2016-12-11 09:50:21+00",10.8,12.8,,28.9,-320,351,30,1033.53,29,0
"2016-12-11 09:55:21+00",9.6,10.6,,28.8,-294,308,45,1033.66,28.9,0
"2016-12-11 10:00:21+00",10.4,11.4,,28.7,-297,346,38,1033.64,28.8,0
"2016-12-11 10:05:21+00",10.5,12.5,,28.6,-322,335,38,1033.74,28.7,0
"2016-12-11 10:10:21+00",10.0,12.0,,28.6,-292,328,31,1033.84,28.6,0
"2016-12-11 10:15:21+00",8.0,9.0,,28.7,-253,259,54,1033.84,28.7,0
"2016-12-11 10:20:21+00",11.2,12.2,,28.6,-301,393,31,1033.82,28.6,0
"2016-12-11 10:25:21+00",11.3,13.3,,28.5,-315,384,16,1033.79,28.5,0
"2016-12-11 10:30:21+00",11.4,12.4,,28.5,-344,365,31,1033.88,28.5,0
"2016-12-11 10:35:21+00",11.2,13.2,,28.5,-316,375,25,1033.96,28.5,0
"2016-12-11 10:40:21+00",9.0,12.0,,28.5,-287,283,49,1033.92,28.5,0
"2016-12-11 10:45:21+00",9.7,10.7,,28.5,-277,325,35,1034.03,28.5,0
"2016-12-11 10:50:21+00",8.6,10.6,,28.5,-294,250,36,1034.15,28.5,0
"2016-12-11 10:55:21+00",9.4,10.4,,28.5,-323,265,34,1034.03,28.5,0
"2016-12-11 11:00:21+00",9.8,10.8,,28.5,-328,286,27,1034.15,28.5,0
"2016-12-11 11:05:21+00",8.6,10.6,,28.6,-280,249,28,1034.26,28.6,0
"2016-12-11 11:10:21+00",8.1,10.1,,28.6,-236,272,24,1034.36,28.6,0
"2016-12-11 11:15:21+00",8.1,9.1,,28.6,-224,276,29,1034.26,28.6,0
"2016-12-11 11:20:21+00",8.5,9.5,,28.6,-221,296,33,1034.29,28.6,0
"2016-12-11 11:25:21+00",7.8,8.8,,28.6,-215,264,24,1034.33,28.6,0
"2016-12-11 11:30:21+00",8.3,9.3,,28.7,-236,271,22,1034.46,28.6,0
"2016-12-11 11:35:21+00",7.7,8.7,,28.7,-212,258,7,1034.26,28.6,0
"2016-12-11 11:40:21+00",7.7,8.7,,28.6,-188,271,8,1034.22,28.5,0
"2016-12-11 11:45:21+00",7.3,8.3,,28.6,-208,239,29,1034.19,28.5,0
"2016-12-11 11:50:21+00",6.8,7.8,,28.6,-172,237,8,1034.37,28.5,0
"2016-12-11 11:55:21+00",6.7,7.7,,28.7,-174,228,12,1034.34,28.5,0
"2016-12-11 12:00:21+00",6.7,7.7,,28.8,-195,214,19,1034.43,28.6,0
"2016-12-11 12:05:21+00",6.2,7.2,,28.8,-144,217,9,1034.32,28.6,0
"2016-12-11 12:10:21+00",6.3,7.3,,28.8,-176,219,22,1034.5,28.6,0
"2016-12-11 12:15:21+00",5.4,6.4,,28.8,-130,185,25,1034.59,28.6,0
"2016-12-11 12:20:21+00",6.1,7.1,,28.8,-130,223,12,1034.56,28.6,0
"2016-12-11 12:25:21+00",6.4,7.4,,28.8,-132,234,9,1034.66,28.6,0
"2016-12-11 12:30:21+00",6.8,7.8,,28.8,-160,241,15,1034.87,28.6,0
"2016-12-11 12:35:21+00",7.1,8.1,,28.8,-175,254,15,1034.91,28.6,0
"2016-12-11 12:40:21+00",7.9,8.9,,28.9,-199,277,18,1035.17,28.7,0
"2016-12-11 12:45:21+00",7.2,8.2,,29.1,-193,254,25,1035.29,28.8,0
"2016-12-11 12:50:21+00",7.1,8.1,,29.2,-203,225,32,1035.31,29,0
"2016-12-11 12:55:21+00",6.4,7.4,,29.2,-196,200,31,1035.33,29.1,0
"2016-12-11 13:00:21+00",6.5,7.5,,29.2,-185,216,20,1035.42,29.2,0
"2016-12-11 13:05:21+00",6.1,6.1,,29.3,-187,182,15,1035.36,29.2,0
"2016-12-11 13:10:21+00",6.1,7.1,,29.3,-174,200,12,1035.3,29.2,0
"2016-12-11 13:15:21+00",4.4,5.4,,29.3,-133,135,26,1035.18,29.3,0
"2016-12-11 13:20:21+00",5.4,6.4,,29.4,-156,175,16,1035.25,29.4,0
"2016-12-11 13:25:21+00",5.2,6.2,,29.4,-137,174,6,1035.15,29.5,0
"2016-12-11 13:30:21+00",4.8,4.8,,29.4,-145,140,16,1035.25,29.5,0.1
"2016-12-11 13:35:21+00",5.6,6.6,,29.5,-198,154,39,1035.43,29.6,0.6
"2016-12-11 13:40:21+00",7.3,8.3,,29.6,-246,200,22,1035.46,29.8,4.6
"2016-12-11 13:45:21+00",7.9,8.9,,29.6,-217,269,21,1035.43,29.8,0.9
"2016-12-11 13:50:21+00",5.9,6.9,,29.7,-156,199,49,1035.36,29.9,0
"2016-12-11 13:55:21+00",6.3,7.3,,29.8,-184,195,42,1035.52,29.9,0.7
"2016-12-11 14:00:21+00",6.5,7.5,,29.7,-188,200,32,1035.61,30,0.1
"2016-12-11 14:05:21+00",7.1,8.1,,29.7,-217,215,12,1035.52,29.9,0.4
"2016-12-11 14:10:21+00",6.6,8.6,,29.6,-236,162,23,1035.68,29.9,2.6
"2016-12-11 14:15:21+00",7.0,8.0,,29.7,-250,174,25,1035.79,30,6.2
"2016-12-11 14:20:21+00",5.5,6.5,,29.8,-190,157,39,1035.58,30.1,6.5
"2016-12-11 14:25:21+00",6.1,6.1,,29.8,-203,166,23,1035.84,30.2,11.7
"2016-12-11 14:30:21+00",7.4,8.4,,29.8,-283,164,18,1036.12,30.2,15.8
"2016-12-11 14:35:21+00",7.0,8.0,,30,-266,169,13,1036.09,30.4,18.2
"2016-12-11 14:40:21+00",6.1,8.1,,30.1,-228,119,49,1036.16,30.4,25.2
"2016-12-11 14:45:21+00",7.3,8.3,,30,-233,214,9,1036.19,30.6,26.6
"2016-12-11 14:50:21+00",6.7,7.7,,30,-195,209,12,1036.3,30.6,27.9
"2016-12-11 14:55:21+00",6.2,7.2,,30.1,-157,215,21,1036.07,30.6,28
"2016-12-11 15:00:21+00",6.0,7.0,,30.2,-137,217,7,1035.76,30.7,30.3
"2016-12-11 15:05:21+00",5.4,6.4,,30.2,5,224,0,1035.57,30.9,35.8
"2016-12-11 15:10:21+00",4.9,5.9,,30.3,-124,160,37,1035.6,31.1,46.6
"2016-12-11 15:15:21+00",4.1,5.1,,30.3,-76,150,6,1035.6,31.2,53.4
"2016-12-11 15:20:21+00",3.5,4.5,,30.5,-73,121,-1,1035.59,31.5,58.4
"2016-12-11 15:25:21+00",3.8,4.8,,30.6,-75,134,7,1035.39,31.6,54.9
"2016-12-11 15:30:21+00",2.9,2.9,,30.6,-90,68,-21,1035.28,31.8,53.9
"2016-12-11 15:35:21+00",2.8,3.8,,30.6,-65,74,27,1035.41,32,62.3
"2016-12-11 15:40:21+00",3.5,3.5,,30.7,-102,98,9,1035.4,32.1,61.9
"2016-12-11 15:45:21+00",1.7,1.7,,31,1,31,30,1035.12,32.3,65.3
"2016-12-11 15:50:21+00",1.9,2.9,,31.2,-12,49,18,1034.86,32.5,71.9
"2016-12-11 15:55:21+00",2.1,2.1,,31.4,77,-13,-8,1034.72,32.7,86.9
"2016-12-11 16:00:21+00",1.6,1.6,,31.6,29,33,5,1034.68,33,110.6
"2016-12-11 16:05:21+00",2.8,3.8,,31.7,-109,4,30,1034.56,33.5,129.1
"2016-12-11 16:10:21+00",1.3,2.3,,32,35,9,18,1034.35,34,136.5
"2016-12-11 16:15:21+00",1.3,2.3,,32.5,-23,-36,23,1034.3,34.4,126
"2016-12-11 16:20:21+00",3.3,6.3,,33,115,-28,24,1033.88,34.8,118
"2016-12-11 16:25:21+00",3.9,6.9,,32.7,155,23,11,1033.45,34.7,106.2
"2016-12-11 16:30:21+00",5.8,6.8,,32.2,245,-22,3,1033.28,34.5,88.5
"2016-12-11 16:35:21+00",5.4,6.4,,32.1,226,-70,9,1033.14,34.3,129.2
"2016-12-11 16:40:21+00",3.3,4.3,,32.3,136,-54,-1,1033.39,34.4,143.7
"2016-12-11 16:45:21+00",4.2,5.2,,32.4,167,-50,17,1033.36,34.3,152.3
"2016-12-11 16:50:21+00",2.9,2.9,,32.7,54,-88,22,1033.11,34.4,112.7
"2016-12-11 16:55:21+00",4.7,5.7,,32.8,168,-115,11,1032.86,34.3,109.1
"2016-12-11 17:00:21+00",4.8,5.8,,32.7,119,-157,0,1032.68,34.3,99.1
"2016-12-11 17:05:21+00",6.4,7.4,,32.6,179,-193,-1,1032.4,34.2,92.5
"2016-12-11 17:10:21+00",5.7,6.7,,32.7,118,-210,-14,1032.42,34,75.7
"2016-12-11 17:15:21+00",7.1,8.1,,32.8,75,-284,3,1032.29,33.8,68.1
"2016-12-11 17:20:21+00",6.5,8.5,,32.9,16,-271,-17,1032.36,33.7,58.8
"2016-12-11 17:25:21+00",3.9,4.9,,32.9,-29,-149,29,1032.57,33.7,56.4
"2016-12-11 17:30:21+00",7.5,8.5,,33,-4,-308,-26,1032.41,33.7,56.6
"2016-12-11 17:35:21+00",7.4,8.4,,32.7,-60,-303,-21,1032.39,33.4,47.4
"2016-12-11 17:40:21+00",8.1,9.1,,32.8,5,-335,-29,1032.34,33.3,44.2
"2016-12-11 17:45:21+00",6.5,8.5,,32.8,-59,-260,-1,1032.16,33.3,57.3
"2016-12-11 17:50:21+00",6.8,9.8,,33.2,-35,-281,0,1032.05,33.7,71.2
"2016-12-11 17:55:21+00",6.6,8.6,,33.1,-112,-256,6,1032.03,33.9,82.8
"2016-12-11 18:00:21+00",8.3,10.3,,33.3,-82,-337,-29,1031.83,34.2,86.3
"2016-12-11 18:05:21+00",5.2,7.2,,33.4,-23,-204,14,1031.59,34.2,85
"2016-12-11 18:10:21+00",7.1,8.1,,33.4,-12,-294,-12,1031.49,34.1,67.4
"2016-12-11 18:15:21+00",6.6,8.6,,33.5,-9,-267,-7,1031.32,34.1,66.6
"2016-12-11 18:20:21+00",7.4,9.4,,33.5,3,-301,-27,1031.18,34,75.6
"2016-12-11 18:25:21+00",6.5,7.5,,33.7,79,-266,-2,1031.02,34.4,80.1
"2016-12-11 18:30:21+00",5.3,6.3,,33.9,42,-204,48,1030.86,34.3,67.5
"2016-12-11 18:35:21+00",6.0,8.0,,33.9,45,-238,13,1030.86,34.4,54.6
"2016-12-11 18:40:21+00",8.6,10.6,,33.8,99,-358,-12,1030.71,34.4,40.8
"2016-12-11 18:45:21+00",7.5,9.5,,33.9,24,-320,16,1030.68,34.4,35.8
"2016-12-11 18:50:21+00",7.6,9.6,,33.8,35,-315,6,1030.63,34.3,44.9
"2016-12-11 18:55:21+00",8.5,11.5,,34,-99,-346,-14,1030.66,34.5,47.6
"2016-12-11 19:00:21+00",8.0,10.0,,34.3,-170,-303,25,1031.08,34.8,47.7
"2016-12-11 19:05:21+00",10.9,12.9,,34.3,-194,-422,8,1031.04,35.1,62.9
"2016-12-11 19:10:21+00",8.9,10.9,,34.7,-239,-312,9,1031.17,35.5,93.2
"2016-12-11 19:15:21+00",10.2,11.2,,35.2,-168,-399,-11,1030.96,36.3,231.9
"2016-12-11 19:20:21+00",10.4,12.4,,35.3,-80,-427,-17,1030.82,36.7,160.9
"2016-12-11 19:25:21+00",9.1,11.1,,35.2,-229,-333,-2,1030.8,36.7,107.8
"2016-12-11 19:30:21+00",9.1,10.1,,35,-292,-285,6,1030.79,36.5,43
"2016-12-11 19:35:21+00",10.9,11.9,,35.1,-268,-397,0,1030.79,36.1,21.6
"2016-12-11 19:40:21+00",9.5,10.5,,35.1,-184,-361,-6,1030.86,35.6,16
"2016-12-11 19:45:21+00",9.2,11.2,,35.2,-252,-326,4,1030.7,35.7,14.5
"2016-12-11 19:50:21+00",7.7,9.7,,35.3,-214,-268,11,1030.74,35.8,13.7
"2016-12-11 19:55:21+00",10.1,12.1,,35.3,-320,-296,-4,1030.84,35.8,9.5
"2016-12-11 20:00:21+00",7.9,8.9,,35.5,-277,-194,15,1030.84,36,14.4
"2016-12-11 20:05:21+00",7.6,8.6,,35.6,-267,-192,17,1030.95,36.1,15.1
"2016-12-11 20:10:21+00",7.4,8.4,,35.8,-257,-198,32,1031.01,36.2,6.2
"2016-12-11 20:15:21+00",6.8,9.8,,35.7,-227,-192,14,1030.84,36.4,4.4
"2016-12-11 20:20:21+00",7.0,8.0,,35.8,-236,-176,-1,1030.73,36.4,2.8
"2016-12-11 20:25:21+00",9.4,11.4,,35.8,-276,-326,5,1030.86,36.3,0.5
"2016-12-11 20:30:21+00",9.5,10.5,,35.8,-365,-216,4,1030.86,36.3,0
"2016-12-11 20:35:21+00",10.1,12.1,,35.7,-427,-154,16,1030.69,36.2,0
"2016-12-11 20:40:21+00",8.4,9.4,,35.5,-372,-145,9,1030.66,36.1,0.2
"2016-12-11 20:45:21+00",8.8,9.8,,35.4,-366,-97,4,1030.61,35.9,0
"2016-12-11 20:50:21+00",9.2,11.2,,35.4,-385,-117,20,1030.63,35.9,0
"2016-12-11 20:55:21+00",8.7,10.7,,35.3,-375,-138,4,1030.79,35.7,0
"2016-12-11 21:00:21+00",10.0,11.0,,35.2,-418,-131,19,1030.91,35.6,0
"2016-12-11 21:05:21+00",9.7,10.7,,35.2,-403,-83,16,1030.77,35.5,0
"2016-12-11 21:10:21+00",9.1,11.1,,35.2,-387,-115,21,1030.75,35.3,0
"2016-12-11 21:15:21+00",9.2,11.2,,35.1,-384,-78,12,1030.76,35.3,0
"2016-12-11 21:20:21+00",7.7,8.7,,35.1,-335,-15,11,1030.74,35.2,0
"2016-12-11 21:25:21+00",6.3,7.3,,35.1,-272,-7,16,1030.69,35.1,0
"2016-12-11 21:30:21+00",5.5,6.5,,35.1,-235,-73,4,1030.59,35.1,0
"2016-12-11 21:35:21+00",5.9,6.9,,35,-241,-47,7,1030.58,35.1,0
"2016-12-11 21:40:21+00",5.9,6.9,,35,-236,-71,12,1030.53,35,0
"2016-12-11 21:45:21+00",7.2,8.2,,35.1,-298,-55,17,1030.48,34.9,0
"2016-12-11 21:50:21+00",5.6,6.6,,35,-230,-45,10,1030.3,34.9,0
"2016-12-11 21:55:21+00",5.2,6.2,,35,-210,-72,27,1030.3,34.9,0
"2016-12-11 22:00:21+00",5.5,7.5,,35,-225,-75,6,1030.2,34.8,0
"2016-12-11 22:05:21+00",5.3,6.3,,35,-227,-91,9,1030.13,34.8,0
"2016-12-11 22:10:21+00",3.4,4.4,,35,-130,-53,16,1030.02,34.8,0
"2016-12-11 22:15:21+00",3.4,3.4,,35,-103,-97,2,1029.89,34.7,0
"2016-12-11 22:20:21+00",3.4,3.4,,35,-110,-76,3,1029.98,34.6,0
"2016-12-11 22:25:21+00",2.3,3.3,,35,-61,-66,2,1029.91,34.5,0
"2016-12-11 22:30:21+00",2.0,2.0,,35.1,-67,-36,1,1029.8,34.4,0
"2016-12-11 22:35:21+00",1.0,2.0,,35.1,-29,-13,10,1029.76,34.4,0
"2016-12-11 22:40:21+00",1.3,2.3,,35.1,-47,-4,6,1029.78,34.3,0
"2016-12-11 22:45:21+00",2.1,2.1,,35.1,-77,2,19,1029.82,34.3,0
"2016-12-11 22:50:21+00",1.4,2.4,,35.2,-44,15,6,1029.77,34.3,0
"2016-12-11 22:55:21+00",0.9,0.9,,35.2,28,-13,-2,1029.48,34.2,0
"2016-12-11 23:00:21+00",4.0,5.0,,35.2,167,2,6,1029.17,34.3,0
"2016-12-11 23:05:21+00",2.3,3.3,,35.1,86,-1,12,1029.27,34.3,0
"2016-12-11 23:10:21+00",1.7,1.7,,35.1,48,37,1,1029.46,34.3,0
"2016-12-11 23:15:21+00",2.3,2.3,,35,71,44,3,1029.42,34.3,0
"2016-12-11 23:20:21+00",2.6,2.6,,35,59,65,0,1029.36,34.2,0
"2016-12-11 23:25:21+00",3.8,3.8,,35.1,143,63,10,1029.05,34.1,0
"2016-12-11 23:30:21+00",3.9,3.9,,35,145,69,6,1029.01,34.2,0
"2016-12-11 23:35:21+00",4.0,5.0,,35,145,72,15,1028.89,34.1,0
"2016-12-11 23:40:21+00",3.8,3.8,,35.1,147,47,5,1028.7,34,0
"2016-12-11 23:45:21+00",3.2,4.2,,35.3,110,-73,7,1028.66,34,0
"2016-12-11 23:50:21+00",3.3,5.3,,36.3,6,-124,11,1028.72,34.2,0
"2016-12-11 23:55:21+00",8.0,10.0,,37.4,-35,-336,-12,1028.58,35.5,0
